Regional Weather Roundup
Issued by NWS Boston, MA

Home | Current Version | Previous Version | Text Only | Print | Product List | Glossary On
Versions: 1 2 3 4 5 6 7 8 9 10 11 12 13 14 15 16 17 18 19 20 21 22 23 24 25 26 27 28 29 30 31 32 33 34 35 36 37 38 39 40 41 42 43 44 45 46 47 48 49 50
000
ASUS41 KBOX 290910
RWRBOX

REGIONAL WEATHER ROUNDUP
NATIONAL WEATHER SERVICE TAUNTON MA
500 AM EDT FRI MAY 29 2015

NOTE:  "FAIR" INDICATES FEW OR NO CLOUDS BELOW 12,000 FEET WITH NO
SIGNIFICANT WEATHER AND/OR OBSTRUCTIONS TO VISIBILITY.  THE FOLLOWING
OBSERVATION LOCATIONS DO NOT REPORT PRESENT WEATHER...PROVINCETOWN...
SMITHFIELD...BLOCK ISLAND...KEENE...AND OXFORD.

MAZALL-291000-
EASTERN MASSACHUSETTS

CITY           SKY/WX    TMP DP  RH WIND       PRES   REMARKS
BOSTON         CLEAR     64  55  72 NW8       30.24R
BEVERLY        CLEAR     59  54  83 N7        30.23R
LAWRENCE       CLEAR     59  55  87 CALM      30.26S
BEDFORD        CLEAR     56  54  93 CALM      30.24R
BLUE HILL        N/A     59  54  83 NW12      30.24R
NORWOOD        FOG       52  51  97 CALM      30.25R VSB 1/2
MARSHFIELD     CLEAR     57  57 100 W5        30.26R
PLYMOUTH       FOG       53  53 100 CALM      30.25R VSB 1/4
TAUNTON        FOG       51  50  96 CALM      30.25R VSB 1/2
NEW BEDFORD    CLEAR     54  53  97 CALM      30.24R
$$

MAZALL-291000-
CAPE COD AND THE ISLANDS

CITY           SKY/WX    TMP DP  RH WIND       PRES   REMARKS
FALMOUTH       MOCLDY    52  52 100 CALM      30.25R FOG
HYANNIS        CLEAR     54  53  97 CALM      30.23R FOG
CHATHAM        CLEAR     57  56  96 CALM      30.24R FOG
PROVINCETOWN   CLEAR     55  50  82 W5        30.24R
NANTUCKET      CLOUDY    60  57  89 SW5       30.24S
MARTHAS VNYRD  FOG       55  54  96 CALM      30.24R VSB 3/4
$$

MAZALL-291000-
CENTRAL AND WESTERN MASSACHUSETTS

CITY           SKY/WX    TMP DP  RH WIND       PRES   REMARKS
WORCESTER      CLEAR     61  53  75 N7        30.27R
FITCHBURG      CLEAR     58  54  86 N5        30.26S
ORANGE         PTCLDY    52  51  97 CALM      30.28R
SPRINGFIELD    CLEAR     52  50  93 NE2       30.26S FOG
WESTFIELD      CLEAR     54  51  90 CALM      30.27S
NORTH ADAMS    CLEAR     50  48  93 CALM      30.30R
PITTSFIELD     CLEAR     52  51  97 CALM      30.29R
$$

RIZALL-291000-
RHODE ISLAND

CITY           SKY/WX    TMP DP  RH WIND       PRES   REMARKS
PROVIDENCE     CLEAR     60  55  83 W3        30.26R
NEWPORT        NOT AVBL
BLOCK ISLAND   CLEAR     59  55  88 N5        30.26R
SMITHFIELD     CLEAR    N/A N/A N/A NW3       30.25R
WESTERLY       MOCLDY    55  53  93 CALM      30.26R
$$

CTZALL-291000-
CONNECTICUT

CITY           SKY/WX    TMP DP  RH WIND       PRES   REMARKS
BRADLEY INTL   PTCLDY    58  53  84 CALM      30.26R
HARTFORD       CLEAR     57  53  86 SE9       30.27R
BRIDGEPORT     CLEAR     60  55  83 N5        30.26R
DANBURY        CLEAR     53  50  89 SW3       30.29R
GROTON         CLEAR     57  54  89 NE5       30.25R
NEW HAVEN      CLEAR     57  53  86 N3        30.26R
CHESTER        FAIR      61  55  82 N5        30.28R HAZE
MERIDEN        CLEAR     53  50  89 CALM      30.27R
WILLIMANTIC    CLEAR     54  52  93 CALM      30.27R
OXFORD         CLEAR     55  48  76 N7        30.30R
$$

MEZ002-015-021-024-NHZ003-005-008-011-012-014-VTZ005-008-291000-
NORTHERN NEW ENGLAND

CITY           SKY/WX    TMP DP  RH WIND       PRES   REMARKS
PORTLAND ME    MOCLDY    64  59  83 N7        30.23R
BANGOR ME      PTCLDY    59  57  93 N6        30.23R
CONCORD NH     CLEAR     55  53  93 CALM      30.26R
MANCHESTER NH  CLEAR     62  55  77 NW3       30.24R
NASHUA NH      CLEAR     56  55  96 NW7       30.26R
PORTSMOUTH NH  PTCLDY    59  55  87 NW3       30.23R
JAFFREY NH     FAIR      53  51  93 S3        30.28R
KEENE NH       FAIR      52  50  93 CALM      30.29R
BURLINGTON VT  MOCLDY    56  53  90 S5        30.28S
MT. WASHINGTON MOCLDY    45  37  76 N12         N/A
$$

NYZ052-076-291000-
EASTERN NEW YORK

CITY           SKY/WX    TMP DP  RH WIND       PRES   REMARKS
ALBANY         PTCLDY    56  52  86 E5        30.29R
NEW YORK CITY  CLEAR     65  53  65 NE6       30.25S
$$

ANZALL-291000-
MARINE OBSERVATIONS

STATION/POSITION TIME  TEMP    WIND        PRES    VSBY  WAVE
                       AIR SEA DIR/SP/G                  HT/PER
                 (UTC) (F)     (DEG/KT/KT) (MB)    (MI)  (FT/S)
BOSTON BUOY      0850   56 54  280/  4/  4   N/A           2/ 8
BUZZARDS BAY     0900          330/  5/  6   N/A
NANTUCKET SOUND  0850   60 60  230/  6/  8   N/A           1
MASS BAY-STELLWA 0804   54 48  300/  6/  8   N/A    1 7/8  2/ 8
ISLE OF SHOALS   0900   62     320/ 11/ 11   N/A
S OF BLOCK IS    0808      55                N/A           3/ 9
$$

......................KEY.........................
  SKY/WX - SKY CONDITION/PRESENT WEATHER
  TMP    - TEMPERATURE IN FAHRENHEIT
  DWPT   - DEWPOINT IN FAHRENHEIT
  RH     - RELATIVE HUMIDITY IN PERCENT
  WIND   - DIRECTION AND SPEED IN MPH
  PRES   - MEAN SEA LEVEL PRESSURE IN INCHES OF HG
  WCI    - WIND CHILL INDEX
  VSB    - VISIBILITY IN MILES
  HX     - HEAT INDEX
  TC     - TEMPERATURE IN CELSIUS
  VRB    - VARIABLE WIND DIRECTION
  N/A    - NOT AVAILABLE



USA.gov is the U.S. government's official web portal to all federal, state and local government web resources and services.